Weather History for KFLG - January, 2013

Change the Weather History Date:

Saturday, January 26, 2013

  Actual Average Record
Temperature  
Mean Temperature 39 °F 30 °F  
Max Temperature 41 °F 43 °F 60 °F (1987)
Min Temperature 37 °F 18 °F -15 °F (1937)
Degree Days  
Heating Degree Days 26 35  
Month to date heating degree days 1084 916  
Since 1 July heating degree days 3655 3744  
Cooling Degree Days 0 0  
Month to date cooling degree days 0 0  
Year to date cooling degree days 0 0  
Moisture  
Dew Point 38 °F    
Average Humidity 96    
Maximum Humidity 100    
Minimum Humidity 92    
Precipitation  
Precipitation 1.55 in 0.06 in 1.55 in (2013)
Month to date precipitation 1.97 1.73  
Year to date precipitation 1.97 1.73  
Snow  
Snow 0.00 in 0.80 in 13.10 in (1948)
Month to date snowfall 1.0 19.1  
Since 1 July snowfall 30.6 48.2  
Snow Depth 3.00 in    
Sea Level Pressure  
Sea Level Pressure 29.98 in    
Wind  
Wind Speed 8 mph (South)    
Max Wind Speed 20 mph    
Max Gust Speed 25 mph    
Visibility 4 miles    
Events Fog , Rain    
T = Trace of Precipitation, MM = Missing Value Source: NWS Daily Summary

Daily Weather History Graph

Daily Weather History Graph

Search for Another Location

Airport or City:

Trip Planner

Search our weather history database for the weather conditions in past years. The results will help you decide how hot, cold, wet, or windy it might be!

Date:

Astronomy

Jan. 26, 2013 Rise Set
Actual Time 7:29 AM MST 5:49 PM MST
Civil Twilight 7:02 AM MST 6:16 PM MST
Nautical Twilight 6:32 AM MST 6:47 PM MST
Astronomical Twilight 6:02 AM MST 7:17 PM MST
Moon 5:45 PM MST 6:51 AM MST
Length of Visible Light 11h 13m
Length of Day
10h 19m
Full, 100% of the Moon is Illuminated
Jan 26
Full
Jan 26
Full
Feb 3
Last Quarter
Feb 10
New
Feb 17
First Quarter

Hourly Weather History & Observations

Time (MST) Temp. Windchill Dew Point Humidity Pressure Visibility Wind Dir Wind Speed Gust Speed Precip Events Conditions
12:04 AM 37.4 °F 33.8 °F 37.4 °F 100% 30.17 in 0.8 mi NNE 4.6 mph - 0.02 in Rain Light Rain
12:11 AM 37.4 °F 34.9 °F 37.4 °F 100% 30.17 in 0.5 mi NE 3.5 mph - 0.03 in Fog , Rain Light Rain
12:30 AM 37.4 °F 33.8 °F 37.4 °F 100% 30.16 in 1.0 mi ENE 4.6 mph - 0.05 in Rain Light Rain
12:39 AM 37.4 °F 33.8 °F 37.4 °F 100% 30.15 in 1.2 mi NE 4.6 mph - 0.06 in Rain Light Rain
12:52 AM 37.4 °F 34.9 °F 37.4 °F 100% 30.15 in 0.8 mi ENE 3.5 mph - 0.07 in Rain Light Rain
12:57 AM 37.0 °F 34.5 °F 37.0 °F 100% 30.01 in 0.8 mi NE 3.5 mph - 0.07 in Rain Light Rain
1:12 AM 37.4 °F 33.8 °F 37.4 °F 100% 30.13 in 0.5 mi NNE 4.6 mph - 0.01 in Fog , Rain Light Rain
1:26 AM 37.4 °F - 37.4 °F 100% 30.13 in 1.0 mi Calm Calm - 0.03 in Rain Light Rain
1:54 AM 37.4 °F - 37.4 °F 100% 30.14 in 1.2 mi Calm Calm - 0.11 in Rain Rain
1:57 AM 37.9 °F - 37.9 °F 100% 29.99 in 1.2 mi Calm Calm - 0.12 in Rain Rain
2:05 AM 37.4 °F 34.9 °F 37.4 °F 100% 30.13 in 1.0 mi NE 3.5 mph - 0.02 in Rain Rain
2:15 AM 37.4 °F - 37.4 °F 100% 30.13 in 1.0 mi Calm Calm - 0.05 in Rain Rain
2:24 AM 37.4 °F 34.9 °F 37.4 °F 100% 30.12 in 1.0 mi NNE 3.5 mph - 0.06 in Rain Light Rain
2:29 AM 37.4 °F 33.8 °F 37.4 °F 100% 30.11 in 0.8 mi ENE 4.6 mph - 0.07 in Rain Light Rain
2:34 AM 37.4 °F 32.1 °F 37.4 °F 100% 30.11 in 1.0 mi ENE 6.9 mph - 0.08 in Rain Rain
2:38 AM 37.4 °F 31.4 °F 37.4 °F 100% 30.10 in 2.0 mi ENE 8.1 mph - 0.08 in Rain Light Rain
2:45 AM 37.4 °F 32.8 °F 37.4 °F 100% 30.10 in 3.0 mi NE 5.8 mph - 0.09 in Rain Light Rain
2:48 AM 37.4 °F 33.8 °F 37.4 °F 100% 30.10 in 1.8 mi NE 4.6 mph - 0.09 in Rain Light Rain
2:57 AM 39.0 °F 36.8 °F 37.9 °F 96% 29.95 in 1.5 mi East 3.5 mph - 0.10 in Rain Light Rain
3:00 AM 39.2 °F 37.0 °F 37.4 °F 93% 30.09 in 2.0 mi ENE 3.5 mph - 0.00 in Rain Light Rain
3:11 AM 39.2 °F 34.2 °F 37.4 °F 93% 30.08 in 4.0 mi NE 6.9 mph - 0.02 in Rain Light Rain
3:57 AM 37.9 °F 34.4 °F 37.9 °F 100% 29.93 in 4.0 mi East 4.6 mph - 0.06 in Rain Light Rain
4:16 AM 37.4 °F 32.8 °F 37.4 °F 100% 30.05 in 2.5 mi East 5.8 mph - 0.02 in Rain Light Rain
4:31 AM 37.4 °F 34.9 °F 37.4 °F 100% 30.04 in 2.5 mi East 3.5 mph - 0.04 in Rain Light Rain
4:47 AM 37.4 °F 33.8 °F 37.4 °F 100% 30.04 in 3.0 mi ENE 4.6 mph - 0.05 in Rain Light Rain
4:55 AM 37.9 °F 33.5 °F 37.9 °F 100% 29.91 in 2.5 mi East 5.8 mph - 0.06 in Rain Light Rain
5:07 AM 37.4 °F 32.1 °F 37.4 °F 100% 30.03 in 1.8 mi East 6.9 mph - 0.03 in Rain Rain
5:15 AM 37.4 °F 33.8 °F 37.4 °F 100% 30.02 in 2.5 mi East 4.6 mph - 0.04 in Rain Light Rain
5:23 AM 37.4 °F 34.9 °F 37.4 °F 100% 30.02 in 6.0 mi NE 3.5 mph - 0.04 in Rain Light Rain
5:30 AM 37.4 °F 33.8 °F 37.4 °F 100% 30.02 in 6.0 mi NE 4.6 mph - 0.05 in Rain Light Rain
5:55 AM 37.4 °F 34.9 °F 37.4 °F 100% 30.02 in 2.0 mi NE 3.5 mph - 0.09 in Rain Rain
5:57 AM 37.9 °F - 37.0 °F 97% 29.91 in 2.0 mi Calm Calm - 0.09 in Rain Rain
6:13 AM 37.4 °F 33.8 °F 37.4 °F 100% 30.02 in 5.0 mi ENE 4.6 mph - 0.04 in Rain Light Rain
6:30 AM 37.4 °F 34.9 °F 37.4 °F 100% 30.01 in 5.0 mi East 3.5 mph - 0.06 in Rain Light Rain
6:57 AM 37.9 °F 34.4 °F 37.0 °F 97% 29.91 in 5.0 mi ENE 4.6 mph - 0.10 in Rain Light Rain
7:57 AM 37.9 °F 35.5 °F 37.0 °F 97% 29.91 in 2.5 mi East 3.5 mph - 0.07 in Rain Rain
8:27 AM 37.4 °F - 37.4 °F 100% 30.00 in 3.0 mi Calm Calm - 0.08 in Rain Rain
8:42 AM 37.4 °F - 37.4 °F 100% 30.00 in 2.0 mi Calm Calm - 0.14 in Rain Rain
8:57 AM 37.0 °F - 37.0 °F 100% 29.92 in 1.2 mi Calm Calm - 0.17 in Rain Rain
9:04 AM 37.4 °F - 37.4 °F 100% 30.00 in 3.0 mi Calm Calm - 0.02 in Rain Light Rain
9:19 AM 37.4 °F - 37.4 °F 100% 30.00 in 2.0 mi Calm Calm - 0.04 in Rain Light Rain
9:57 AM 39.0 °F - 37.9 °F 96% 29.90 in 2.0 mi Calm Calm - 0.11 in Rain Rain
10:01 AM 39.2 °F - 37.4 °F 93% 29.99 in 1.8 mi Calm Calm - 0.01 in Rain Rain
10:12 AM 39.2 °F 37.0 °F 39.2 °F 100% 29.99 in 2.0 mi WSW 3.5 mph - 0.03 in Rain Rain
10:23 AM 41.0 °F 35.2 °F 39.2 °F 93% 29.99 in 4.0 mi SW 9.2 mph - 0.05 in Rain Light Rain
10:33 AM 41.0 °F 34.7 °F 39.2 °F 93% 29.99 in 6.0 mi SSW 10.4 mph 20.7 mph 0.07 in Rain Light Rain
10:57 AM 41.0 °F 33.9 °F 39.9 °F 96% 29.87 in 7.0 mi SSW 12.7 mph 24.2 mph 0.09 in Rain Light Rain
11:21 AM 39.2 °F 31.2 °F 39.2 °F 100% 29.98 in 7.0 mi SSW 13.8 mph 21.9 mph 0.03 in Rain Light Rain
11:40 AM 39.2 °F 32.0 °F 39.2 °F 100% 29.97 in 5.0 mi SSW 11.5 mph - 0.06 in Rain Rain
11:57 AM 41.0 °F 34.7 °F 39.9 °F 96% 29.86 in 7.0 mi SSW 10.4 mph - 0.09 in Rain Light Rain
12:04 PM 41.0 °F 33.5 °F 39.2 °F 93% 29.96 in 7.0 mi SSW 13.8 mph - 0.01 in Rain Light Rain
12:20 PM 39.2 °F 32.0 °F 39.2 °F 100% 29.95 in 5.0 mi SW 11.5 mph - 0.03 in Rain Rain
12:38 PM 39.2 °F 35.0 °F 39.2 °F 100% 29.94 in 6.0 mi WSW 5.8 mph - 0.06 in Rain Light Rain
12:52 PM 41.0 °F 34.7 °F 39.2 °F 93% 29.93 in 5.0 mi SW 10.4 mph 17.3 mph 0.07 in Rain Light Rain
12:57 PM 41.0 °F 32.8 °F 39.0 °F 93% 29.83 in 4.0 mi SSW 16.1 mph 23.0 mph 0.08 in Rain Light Rain
1:08 PM 39.2 °F 31.2 °F 39.2 °F 100% 29.93 in 6.0 mi SW 13.8 mph - 0.01 in Rain Light Rain
1:17 PM 39.2 °F 31.2 °F 39.2 °F 100% 29.93 in 6.0 mi SSW 13.8 mph - 0.02 in Rain Light Rain
1:21 PM 39.2 °F 30.8 °F 39.2 °F 100% 29.93 in 6.0 mi SW 15.0 mph - 0.02 in Rain Light Rain
1:30 PM 39.2 °F 31.2 °F 39.2 °F 100% 29.92 in 6.0 mi SW 13.8 mph - 0.04 in Rain Light Rain
1:38 PM 39.2 °F 33.0 °F 39.2 °F 100% 29.92 in 7.0 mi SW 9.2 mph - 0.05 in Rain Light Rain
1:57 PM 39.9 °F 33.4 °F 37.9 °F 93% 29.81 in 7.0 mi WSW 10.4 mph - 0.06 in Rain Light Rain
2:55 PM 39.2 °F 30.8 °F 37.4 °F 93% 29.91 in 8.0 mi SSW 15.0 mph 20.7 mph 0.07 in Rain Light Rain
2:57 PM 39.0 °F 30.6 °F 37.9 °F 96% 29.80 in 9.0 mi SSW 15.0 mph 20.7 mph 0.07 in Rain Light Rain
3:57 PM 39.9 °F 32.1 °F 39.0 °F 97% 29.80 in 8.0 mi SW 13.8 mph - 0.05 in Rain Light Rain
4:57 PM 39.9 °F 31.1 °F 39.0 °F 97% 29.80 in 8.0 mi SW 17.3 mph 24.2 mph 0.01 in Rain Light Rain
5:21 PM 39.2 °F 30.5 °F 37.4 °F 93% 29.91 in 7.0 mi SW 16.1 mph - 0.01 in Rain Light Rain
5:47 PM 39.2 °F 30.8 °F 37.4 °F 93% 29.92 in 8.0 mi SW 15.0 mph 25.3 mph 0.02 in Rain Light Rain
5:57 PM 39.0 °F 31.0 °F 37.9 °F 96% 29.82 in 7.0 mi SW 13.8 mph - 0.03 in Rain Light Rain
6:16 PM 39.2 °F 31.6 °F 37.4 °F 93% 29.93 in 9.0 mi SW 12.7 mph - 0.01 in Rain Light Rain
6:45 PM 39.2 °F 32.0 °F 37.4 °F 93% 29.94 in 9.0 mi WSW 11.5 mph - 0.03 in Rain Light Rain
6:57 PM 39.0 °F 32.3 °F 37.9 °F 96% 29.84 in 9.0 mi WSW 10.4 mph - 0.03 in Rain Light Rain
7:57 PM 39.0 °F 31.4 °F 37.0 °F 93% 29.85 in 9.0 mi WSW 12.7 mph - 0.02 in Rain Light Rain
8:53 PM 39.2 °F 32.5 °F 37.4 °F 93% 29.97 in 6.0 mi WSW 10.4 mph - 0.03 in Rain Light Rain
8:57 PM 39.0 °F 32.3 °F 37.0 °F 93% 29.88 in 7.0 mi SW 10.4 mph - 0.03 in Rain Light Rain
9:57 PM 37.9 °F 31.5 °F 36.0 °F 93% 29.88 in 9.0 mi WSW 9.2 mph 18.4 mph 0.01 in Rain Light Rain
10:09 PM 37.4 °F 31.4 °F 35.6 °F 93% 29.99 in 7.0 mi SW 8.1 mph - 0.00 in Rain Light Rain
10:21 PM 37.4 °F 30.8 °F 37.4 °F 100% 29.99 in 7.0 mi WSW 9.2 mph - 0.00 in Rain Light Rain
10:57 PM 37.9 °F 32.7 °F 37.0 °F 97% 29.88 in 9.0 mi WSW 6.9 mph - 0.01 in   Overcast
11:36 PM 37.4 °F 32.1 °F 37.4 °F 100% 30.00 in 7.0 mi SW 6.9 mph - 0.02 in Rain Light Rain
11:53 PM 37.4 °F 31.4 °F 37.4 °F 100% 30.00 in 5.0 mi WSW 8.1 mph - 0.03 in Rain Light Rain
11:57 PM 37.9 °F 33.5 °F 37.0 °F 97% 29.88 in 6.0 mi WSW 5.8 mph - 0.03 in Rain Light Rain